STARLINK-5899 (55949 NORAD) Tracking and Keplerian Element Data

This shows tracking and keplerian element data for the satellite.

Feedback or suggestion? Click here.




ElementValue
Catalog55949
NameSTARLINK-5899
Epoch Orbit794
Epoch Day126.16612385
Epoch Year2023
RAAN42.1769
Inclination70.0014
Eccentricity0.0003767
Argument of Perigee261.6232
Mean Anonmoly98.4536
Mean Motion15.69932831
Decay Rate3.623E-05
L11 55949U 23037AM 23126.16612385 .00003623 00000+0 31875-4 0 9994
L22 55949 70.0014 42.1769 0003767 261.6232 98.4536 15.69932831 7942



Live tracking and technical data element details for STARLINK-5899 (NORAD 55949). STARLINK-5899 can be tracked NOW for your location showing map with azimuth and elevation plus other details from your city location.







IsCatalogInMostPopularTable: catalog: 55949, numindb: 10
Update: records affected: 1



GetName: 55949 STARLINK-5899

Hit Count: updated at: Tue, 06 Jun 2023 04:03:53 GMT